Location: Borderline Observatory
(42.7345°N, 72.8696°W)
Time: 17:58:23
(UTC-04:00)

Daily predictions for brighter satellites

Satellite Brightness Start Highest point End
(mag) Time Altitude Azimuth Time Altitude Azimuth Time Altitude Azimuth
Cosmos 540 Rocket 3.9 20:58:47 10° NNW 21:03:56 65° WSW 21:09:01 10° S
deb Chang Zheng 4 3.6 20:59:49 10° NNE 21:04:07 61° ESE 21:08:23 10° S
deb Kosmos-1763 4.2 21:00:39 10° S 21:04:29 65° ESE 21:08:22 10° NNE
GPS 2-04 Rocket1 4.2 21:02:46 10° WSW 21:06:24 26° SSW 21:09:57 10° SE
Cosmos 1500 Rocket 4.0 21:03:48 10° SSE 21:07:54 41° E 21:12:03 10° NNE
Cosmos 2221 4.1 21:07:00 10° NNW 21:10:54 35° W 21:14:47 10° SSW
ATLAS 5 CENTAUR R/B 3.1 21:10:07 10° WSW 21:14:52 49° NW 21:20:01 10° NNE
Cosmos 1378 4.2 21:14:40 10° SSW 21:18:17 48° W 21:21:57 10° N
Cosmos 968 Rocket 3.5 21:14:26 10° SSW 21:19:35 74° ESE 21:24:49 10° NNE
Cosmos 2219 Rocket 4.4 21:22:56 10° NNE 21:25:23 13° NE 21:27:50 10° ENE
AVUM R/B 4.2 21:27:00 14° SE 21:27:54 16° ESE 21:29:33 10° ENE
DELTA 2 R/B (1) 3.6 21:23:09 10° W 21:28:39 64° S 21:34:08 10° ESE
USA 245 3.9 21:27:20 12° ESE 21:29:16 22° ENE 21:31:18 10° NNE
ATLAS CENTAUR R/B 2.5 21:26:39 10° NW 21:30:56 41° WSW 21:34:52 10° S
Terra 3.7 21:29:50 10° E 21:32:49 17° ENE 21:35:48 10° NNE
Cosmos 1553 Rocket 4.3 21:26:55 10° N 21:33:21 76° W 21:39:39 10° S
CZ-4 SHROUD 3.1 21:30:34 10° SSE 21:33:41 78° ENE 21:36:50 10° N
Envisat 3.1 21:28:44 10° S 21:33:49 79° WSW 21:38:55 10° NNW
Cosmos 2266 Rocket 4.1 21:28:09 10° S 21:34:20 60° E 21:40:28 10° NNE
Cosmos 1515 Rocket 3.6 21:29:52 10° N 21:34:21 87° W 21:38:45 10° S
YAOGAN 6 2.9 21:34:09 12° SSE 21:37:20 50° ENE 21:40:53 10° N
ARGOS 3.7 21:33:04 12° SE 21:37:51 44° ENE 21:42:57 10° N
MetOp-A 4.2 21:34:39 10° SSE 21:40:00 77° ENE 21:45:22 10° N
Cosmos 2219 4.2 21:35:24 10° SSE 21:40:09 27° ESE 21:44:56 10° NE
BREEZE-M DEB (TANK) 4.2 21:41:02 10° NW 21:42:37 18° N 21:44:14 10° NE
ERS-1 Rocket 4.4 21:41:55 10° SSW 21:46:30 35° W 21:51:06 10° NNW
Cosmos 405 3.0 21:43:12 10° N 21:46:50 70° ENE 21:49:43 15° SSE
Cosmos 2322 4.0 21:41:24 10° NNW 21:47:04 59° ENE 21:51:39 16° SE
Cosmos 1441 Rocket 3.7 21:44:57 10° SSW 21:48:42 60° WNW 21:52:26 10° N
Meteor 2-20 Rocket 4.4 21:43:17 10° S 21:49:24 73° E 21:55:32 10° NNE
Cosmos 1777 Rocket 4.0 21:44:40 10° SSW 21:49:57 84° ESE 21:55:14 10° NNE
Cosmos 2237 Rocket 4.4 21:47:55 10° NNE 21:50:49 14° NE 21:53:42 10° ENE
Sich 1 4.5 21:51:05 16° SE 21:53:12 22° E 21:56:38 10° NE
Cosmos 1939 Rocket 4.4 21:51:00 10° SSW 21:54:35 32° W 21:58:08 10° NNW
H-2A R/B 3.2 21:51:09 15° ESE 21:54:54 32° ENE 21:59:41 10° N
Cosmos 2322 Rocket 3.1 21:49:37 10° NW 21:54:55 44° WSW 22:00:11 10° S
SPOT 5 3.5 21:57:34 10° S 22:01:54 50° W 22:06:31 10° NNW
SL-16 R/B 3.2 21:58:10 10° NW 22:03:26 40° WSW 22:08:41 10° S
Cosmos 1805 Rocket 4.0 22:00:35 18° SSE 22:03:36 45° E 22:07:51 10° NNE
Cosmos 1437 2.7 22:02:32 17° S 22:04:58 71° E 22:08:15 10° NNE
Cosmos 1908 3.8 22:01:32 10° NNW 22:05:21 56° W 22:08:45 13° S
Cosmos 2151 2.9 22:01:49 11° S 22:05:52 82° E 22:10:05 10° N
Cosmos 1726 3.2 22:02:30 10° NNE 22:05:52 30° ENE 22:07:30 21° ESE
Cosmos 2360 Rocket 2.2 22:01:00 10° NNW 22:06:41 85° ENE 22:10:47 19° SSE
SPOT 1/Viking Rocket 3.5 22:02:26 15° SSE 22:06:42 88° WSW 22:11:53 10° NNW
NOSS 3-1 (C) 4.0 22:03:18 12° S 22:07:58 33° ESE 22:13:34 10° NE
NOAA 11 4.2 22:04:08 17° SSE 22:08:22 76° ENE 22:13:49 10° N
Cosmos 1151 Rocket 3.4 22:04:29 10° NNW 22:08:44 63° W 22:12:25 14° S
Nadezhda 2 Rocket 4.4 22:03:04 10° S 22:09:11 74° E 22:15:18 10° N
Cosmos 1680 Rocket 3.5 22:11:02 10° NNW 22:16:18 88° WSW 22:19:50 21° SSE
Cosmos 923 Rocket 4.3 22:13:57 10° NNW 22:19:07 64° WSW 22:22:50 19° S
H-2A R/B 4.5 22:16:34 10° SW 22:19:50 19° W 22:23:06 10° NW
Cosmos 1707 Rocket 3.6 22:16:37 10° N 22:20:57 65° E 22:23:15 27° SSE
Cosmos 1666 Rocket 3.7 22:23:05 25° SSE 22:25:25 56° E 22:29:46 10° NNE
SWAS 4.4 22:21:20 10° NNW 22:25:40 78° ENE 22:27:48 29° SE
Meteor 2-11 Rocket 4.4 22:21:15 10° N 22:27:26 74° E 22:31:26 23° SSE
Cosmos 1674 4.4 22:27:34 10° SW 22:31:01 32° WNW 22:34:32 10° N
Cosmos 2227 Rocket 3.6 22:31:11 18° ESE 22:31:56 19° E 22:35:45 10° ENE
Cosmos 1898 Rocket 3.9 22:29:54 26° SSE 22:32:16 42° ESE 22:37:09 10° NNE
Cosmos 2333 Rocket 3.5 22:28:39 10° N 22:33:39 30° NE 22:37:13 16° ESE
CZ-4B R/B 4.2 22:28:37 10° N 22:33:47 56° WNW 22:38:52 10° SSW
CZ-4C R/B 3.0 22:34:28 35° S 22:35:51 80° WSW 22:39:20 10° NNW
Cosmos 1300 2.7 22:33:47 10° N 22:37:39 80° W 22:39:16 33° S
Cosmos 1470 Rocket 4.5 22:37:46 28° ESE 22:38:42 31° E 22:42:31 10° NNE
SL-08 RB Rocket 4.1 22:36:33 23° S 22:39:14 58° W 22:43:40 10° NNW
SL-16 R/B 4.4 22:37:57 10° N 22:41:15 15° NE 22:44:32 10° E
Cosmos 2058 3.2 22:39:47 19° SSW 22:42:38 62° W 22:46:43 10° N
Cosmos 1626 3.6 22:44:32 23° E 22:44:35 23° E 22:47:37 10° NE
COSMOS 2428 2.7 22:39:47 10° NNW 22:45:30 85° ENE 22:48:24 30° SSE
Meteor 1-4 Rocket 2.7 22:43:52 10° N 22:47:38 64° E 22:48:33 45° SE
Cosmos 2242 Rocket 3.5 22:47:50 10° N 22:52:19 83° E 22:54:01 38° SSE
Landsat 7 4.2 22:51:45 27° S 22:54:13 59° W 22:58:56 10° NNW
SL-23 DEB 3.8 22:50:23 10° WNW 22:54:39 51° SW 22:55:10 46° S
USA 32 4.0 22:50:34 10° N 22:55:52 89° W 22:58:24 32° S
NOSS 0 Rocket 4.4 22:52:18 10° NNW 22:58:19 52° ENE 23:01:28 27° ESE
Spot 4 3.8 22:57:34 37° SSE 22:59:31 85° ENE 23:04:25 10° NNW
Cosmos 2297 Rocket 3.5 22:59:14 22° ESE 22:59:39 22° E 23:03:55 10° NE
Cosmos 1455 2.8 22:57:12 10° N 23:00:48 40° ENE 23:01:18 38° E
IGS 5A 3.5 23:00:13 41° S 23:01:35 76° WSW 23:05:47 10° NNW
SeaSat 1 3.2 23:01:34 27° ESE 23:03:48 44° NE 23:08:28 10° NNW
Cosmos 2237 4.5 23:01:31 10° NNW 23:07:11 62° WSW 23:09:42 33° S
NOSS 3-1 (A) 3.3 23:05:11 20° SSW 23:09:24 71° ESE 23:15:54 10° NE
Terra 2.1 23:08:07 33° SSW 23:10:04 59° W 23:14:48 10° NNW
Cosmos 2219 Rocket 2.3 23:04:50 10° NNW 23:10:26 69° ENE 23:12:41 37° SE
DELTA 2 R/B (1) 4.0 23:09:34 10° W 23:14:44 41° SSW 23:15:32 38° S
Cosmos 292 Rocket 3.7 23:10:27 10° NNW 23:15:15 89° W 23:16:37 47° SSE
Cosmos 1703 3.5 23:16:03 44° SW 23:17:08 66° W 23:21:02 10° N
Cosmos 1862 Rocket 3.5 23:14:39 10° N 23:19:01 73° E 23:19:53 54° SE
Cosmos 2298 Rocket 4.4 23:15:36 19° SW 23:19:29 64° WNW 23:24:47 10° NNE
GEOS 3 Rocket 4.1 23:19:08 29° ESE 23:21:38 55° NE 23:26:42 10° NNW
Cosmos 1980 3.9 23:16:31 10° NNW 23:22:09 62° ENE 23:24:17 37° SE
Cosmos 2219 4.2 23:18:32 10° SW 23:24:02 46° WNW 23:29:35 10° NNE
Cosmos 1271 Rocket 3.4 23:22:07 10° NNW 23:25:46 44° W 23:26:28 39° SW
Cosmos 1933 4.3 23:22:09 10° N 23:25:51 33° ENE 23:26:12 33° E
Cosmos 1346 3.7 23:28:52 54° N 23:28:52 54° N 23:31:19 10° N
Cosmos 1633 Rocket 4.4 23:26:23 20° SW 23:28:51 35° WNW 23:32:54 10° N
ATLAS 2AS CENTAUR R/B 3.3 23:29:35 35° SSE 23:32:11 46° ESE 23:39:44 10° NE
H-2A R/B 3.3 23:31:47 23° SW 23:34:13 35° W 23:39:08 10° NNW
Cosmos 1241 Rocket 4.5 23:33:01 40° S 23:35:03 59° ESE 23:41:11 10° NE
Cosmos 2237 Rocket 2.2 23:30:12 10° NNW 23:35:56 73° ENE 23:37:51 43° SE
COS B Rocket 3.8 23:32:51 10° NNE 23:36:03 43° ENE 23:36:03 43° ENE
Cosmos 1937 Rocket 3.6 23:34:58 31° SW 23:37:30 71° WNW 23:42:43 10° NNE
Cosmos 2082 3.7 23:36:11 45° S 23:37:49 64° ESE 23:43:29 10° NNE
Cosmos 1726 4.4 23:38:29 10° NW 23:41:00 17° W 23:42:11 15° WSW
Nadezhda 1 Rocket 4.3 23:39:10 10° NNW 23:45:05 56° W 23:47:39 33° SSW
ALOS 2 3.4 23:45:44 35° E 23:46:26 38° ENE 23:50:30 10° N
Cosmos 1869 Rocket 4.1 23:47:19 42° E 23:47:29 43° E 23:51:43 10° NNE
Cosmos 192 4.3 23:43:28 10° NNW 23:48:24 79° ENE 23:49:22 57° SE
Cosmos 1269 Rocket 4.5 23:43:12 10° N 23:48:25 52° ENE 23:49:56 39° ESE
Cosmos 2360 Rocket 4.4 23:47:17 10° WNW 23:49:51 13° W 23:52:26 10° SW
Cosmos 389 Rocket 4.1 23:47:16 10° NNE 23:50:07 25° ENE 23:50:07 25° ENE
